#timestamp,LO_Frequency,Hit,StdDev 
1622088015.3,286046998.4,N
1622088035.2,286046999.2,P
1622088055.9,286046996.8,P
1622088075.7,286046996.8,Y
1622088095.6,286046998.2,P
1622088115.4,286047000.6,P
1622088135.3,286047001.0,N
1622088155.1,286047000.6,N
1622088156.0,286047000.6,N
1622088175.8,286047001.0,N
1622088195.7,286047001.2,N
1622088215.5,286047000.7,N
1622088235.4,286047000.6,N
1622088255.2,286047000.4,N
1622088275.0,286047000.4,N
1622088275.9,286047000.4,N
1622088295.8,286047000.5,N
1622088315.6,286047000.3,N
1622088335.4,286047000.5,N
1622088355.3,286046999.9,N
1622088375.1,286047002.7,Y
1622088395.9,286047002.7,P
1622088415.7,286047000.2,N
1622088435.5,286047002.8,N
1622088455.4,286047000.1,N
1622088475.2,286047002.7,N
1622088495.1,286047002.8,N
1622088496.0,286047002.8,N
1622088515.8,286047000.0,N
1622088535.6,286047000.9,N
1622088555.5,286047000.5,N
1622088575.3,286047000.5,N
1622088595.1,286046999.8,N
1622088615.9,286046999.8,N
1622088635.7,286047000.5,N
1622088655.6,286047000.4,N
1622088675.4,286047000.0,N
1622088695.2,286047000.6,N
1622088715.1,286047000.9,N
1622088716.0,286047000.9,N
1622088735.8,286047000.9,N
1622088755.6,286047000.0,N
1622088775.5,286047000.5,N
1622088795.3,286047000.5,N
1622088815.2,286047000.3,N
1622088835.9,286047000.4,N
1622088855.7,286047000.3,N
1622088875.6,286047000.4,N
1622088895.4,286047001.1,N
1622088915.3,286047000.5,N
1622088935.1,286047000.5,N
1622088936.0,286047000.5,N
1622088955.8,286047000.6,N
1622088975.7,286047000.6,N
1622088995.5,286047000.4,N
1622089015.3,286047000.4,N
1622089035.2,286047000.4,N
1622089055.0,286047000.6,N
1622089055.9,286047000.6,N
1622089075.8,286047000.4,N
1622089095.6,286047001.1,Y
1622089115.4,286047000.8,P
1622089135.3,286047001.1,P
1622089155.1,286047001.2,P
1622089175.9,286047001.2,Y
1622089195.7,286046998.7,P
1622089215.5,286046998.7,N
1622089235.4,286046998.3,N
1622089255.2,286046998.4,N
1622089275.1,286046999.4,N
1622089276.0,286046999.4,N
1622089295.8,286046998.4,N
1622089315.6,286046998.6,N
1622089335.5,286046998.6,N
1622089355.3,286046998.8,N
1622089375.1,286046998.4,N
1622089395.9,286046998.3,N
1622089415.7,286046998.4,N
1622089435.6,286046998.4,N
1622089455.4,286046998.4,N
1622089475.2,286046998.8,N
1622089495.1,286046999.1,N
1622089496.0,286046999.1,N
1622089515.8,286046999.3,N
1622089535.6,286046998.4,N
1622089555.5,286046996.5,Y
1622089575.3,286047001.0,P
1622089595.2,286046998.1,N
1622089615.9,286046998.3,N
1622089635.7,286047001.2,N
1622089655.6,286047000.5,N
1622089675.4,286047000.8,N
1622089695.2,286047000.5,N
1622089715.1,286047000.4,N
1622089716.0,286047000.4,N
1622089735.8,286046999.7,N
1622089755.7,286047000.3,N
1622089775.5,286047000.0,N
1622089795.3,286047000.0,N
1622089815.2,286047000.8,N
1622089835.0,286046999.9,N
1622089835.9,286046999.9,N
1622089855.7,286047000.0,N
1622089875.6,286046999.9,N
1622089895.4,286047001.0,N
1622089915.3,286047000.9,N
1622089935.1,286047000.9,N
1622089955.8,286047000.9,N
1622089975.7,286047000.2,N
1622089995.5,286047000.3,N
1622090015.4,286047000.0,N
1622090035.2,286047000.3,N
1622090055.0,286047000.0,N
1622090055.9,286047000.0,N
1622090075.8,286047000.3,N
1622090095.6,286046999.9,N
1622090115.4,286047000.4,N
1622090135.3,286047000.2,N
1622090155.1,286047000.9,N
1622090175.9,286047000.2,N
1622090195.7,286047002.8,Y
1622090215.5,286046999.7,P
1622090235.4,286047000.1,N
1622090255.2,286047000.1,N
1622090275.1,286046999.7,N
1622090276.0,286046999.7,N
1622090295.8,286047002.4,Y
1622090315.6,286047002.4,P
1622090335.5,286047000.1,N
1622090355.3,286047000.1,N
1622090375.1,286047000.4,N
1622090395.9,286047000.7,N
1622090415.7,286047000.4,N
1622090435.6,286046998.2,N
1622090455.4,286047000.6,N
1622090475.2,286047001.1,N
1622090495.1,286047000.5,N
1622090496.0,286047000.5,N
1622090515.8,286047001.0,N
1622090535.7,286047000.6,N
1622090555.5,286046998.1,N
1622090575.3,286047000.6,N
1622090595.2,286047000.5,N
1622090615.0,286047000.6,N
1622090615.9,286047000.6,N
1622090635.8,286046998.2,N
1622090655.6,286046998.3,N
1622090675.4,286046998.1,N
1622090695.3,286046998.5,N
1622090715.1,286046999.3,N
1622090735.8,286046999.6,N
1622090755.7,286046997.3,N
1622090775.5,286046996.8,N
1622090795.4,286046994.9,Y
1622090815.2,286046997.6,P
1622090835.0,286046995.4,P
1622090835.9,286046995.4,N
1622090855.8,286046995.2,N
1622090875.6,286046995.2,N
1622090895.5,286046996.2,N
1622090915.3,286046996.3,N
1622090935.1,286046993.3,Y
1622090955.9,286046999.4,P
1622090975.7,286046999.3,N
1622090995.5,286046998.7,N
1622091045.4,286046999.3,E
1622091055.3,286046998.9,N
1622091075.2,286046998.8,P
1622091095.0,286046998.3,P
1622091095.9,286046998.3,Y
1622091115.8,286047000.9,P
1622091135.6,286047000.9,N
1622091155.4,286047000.4,N
1622091175.3,286047000.6,N
1622091195.1,286047000.9,N
1622091215.8,286047000.7,N
1622091235.7,286047001.0,N
1622091255.5,286047000.2,N
1622091275.4,286047000.9,N
1622091295.2,286047000.5,N
1622091315.0,286047000.9,N
1622091315.9,286047000.9,N
1622091335.8,286046999.9,N
1622091355.6,286047000.5,N
1622091375.4,286047001.0,N
1622091395.3,286047001.1,N
1622091415.1,286047000.7,N
1622091435.9,286047000.6,N
1622091455.7,286047000.5,N
1622091475.5,286047000.6,N
1622091495.4,286047000.6,N
1622091515.2,286047001.2,N
1622091535.1,286046998.2,Y
1622091536.0,286046998.2,P
1622091555.8,286046998.8,N
1622091575.6,286046999.3,N
1622091595.5,286046998.7,N
